TimeMDT,TemperatureF,Dew PointF,Humidity,Sea Level PressureIn,VisibilityMPH,Wind Direction,Wind SpeedMPH,Gust SpeedMPH,PrecipitationIn,Events,Conditions,WindDirDegrees,DateUTC
12:53 AM,21.9,-9.0,25,30.26,10.0,Calm,Calm,-,N/A,,Clear,0,2012-10-27 06:53:00
1:53 AM,19.0,-9.0,29,30.26,10.0,Calm,Calm,-,N/A,,Clear,0,2012-10-27 07:53:00
2:53 AM,17.1,-11.9,27,30.25,10.0,Calm,Calm,-,N/A,,Clear,0,2012-10-27 08:53:00
3:53 AM,18.0,-9.0,30,30.23,10.0,Calm,Calm,-,N/A,,Clear,0,2012-10-27 09:53:00
4:53 AM,15.1,-11.0,31,30.25,10.0,Calm,Calm,-,N/A,,Clear,0,2012-10-27 10:53:00
5:53 AM,15.1,-11.0,31,30.27,10.0,Calm,Calm,-,N/A,,Clear,0,2012-10-27 11:53:00
6:53 AM,15.1,-9.9,32,30.34,10.0,Calm,Calm,-,N/A,,Clear,0,2012-10-27 12:53:00
7:53 AM,15.1,-9.9,32,30.37,10.0,Calm,Calm,-,N/A,,Clear,0,2012-10-27 13:53:00
8:53 AM,25.0,-6.0,26,30.36,10.0,Calm,Calm,-,N/A,,Clear,0,2012-10-27 14:53:00
9:53 AM,34.0,-0.0,24,30.33,10.0,Calm,Calm,-,N/A,,Clear,0,2012-10-27 15:53:00
10:53 AM,41.0,3.0,21,30.25,10.0,Calm,Calm,-,N/A,,Clear,0,2012-10-27 16:53:00
11:53 AM,48.9,1.0,14,30.19,10.0,Calm,Calm,-,N/A,,Clear,0,2012-10-27 17:53:00
12:53 PM,55.0,-9.9,7,30.14,10.0,North,3.5,-,N/A,,Clear,350,2012-10-27 18:53:00
1:53 PM,59.0,-2.0,8,30.11,10.0,North,3.5,-,N/A,,Clear,350,2012-10-27 19:53:00
2:53 PM,61.0,1.0,9,30.08,10.0,Calm,Calm,-,N/A,,Clear,0,2012-10-27 20:53:00
3:53 PM,60.1,-2.9,8,30.09,10.0,NNE,13.8,18.4,N/A,,Clear,20,2012-10-27 21:53:00
4:53 PM,57.9,-2.9,8,30.13,10.0,NNE,12.7,-,N/A,,Clear,20,2012-10-27 22:53:00
5:53 PM,54.0,1.0,12,30.17,10.0,NNE,11.5,-,N/A,,Clear,20,2012-10-27 23:53:00
6:53 PM,48.9,1.9,15,30.24,10.0,North,8.1,-,N/A,,Clear,10,2012-10-28 00:53:00
7:53 PM,44.1,1.0,17,30.29,10.0,ENE,3.5,-,N/A,,Clear,60,2012-10-28 01:53:00
8:53 PM,34.0,-2.0,22,30.30,9.0,Calm,Calm,-,N/A,,Clear,0,2012-10-28 02:53:00
10:53 PM,28.9,-2.0,26,30.26,10.0,Calm,Calm,-,N/A,,Clear,0,2012-10-28 04:53:00
11:53 PM,28.0,-4.0,25,30.20,10.0,Calm,Calm,-,N/A,,Clear,0,2012-10-28 05:53:00